Regional Weather Roundup
Issued by NWS

Home | Current Version | Previous Version | Graphics & Text | Print | Product List | Glossary On
Versions: 1 2 3 4 5 6 7 8 9 10 11 12 13 14 15 16 17 18 19 20 21 22 23 24 25 26 27 28 29 30 31 32 33 34 35 36 37 38 39 40 41 42 43 44 45 46 47 48 49 50
000
ASUS43 KFSD 280710
RWRSD

WEATHER ROUNDUP FOR SOUTH DAKOTA
NATIONAL WEATHER SERVICE SIOUX FALLS SD
200 AM CDT THU AUG 28 2014

NOTE: "FAIR" INDICATES FEW OR NO CLOUDS BELOW 12,000 FEET WITH NO
SIGNIFICANT WEATHER AND/OR OBSTRUCTIONS TO VISIBILITY.


SDZ001>005-009-010-012>017-280800-
NORTHWEST AND NORTH CENTRAL SOUTH DAKOTA

CITY           SKY/WX    TMP DP  RH WIND       PRES   REMARKS
BUFFALO          N/A     59  58  96 W6        29.97F
FAITH            N/A     64  64 100 NE5       30.01F
MOBRIDGE       MOCLDY    66  65  96 SE8       29.97F
$$

SDZ012>016-024>037-041>051-057-063-072>074-280800-
SOUTHWEST AND SOUTH CENTRAL SOUTH DAKOTA

CITY           SKY/WX    TMP DP  RH WIND       PRES   REMARKS
RAPID CTY ARPT CLOUDY    63  61  93 CALM      30.02F
PIERRE         RAIN      66  66 100 S5        29.97F FOG
CUSTER         CLOUDY    56  54  93 NW5       30.12F
ELLSWORTH AFB  CLOUDY    63  61  93 N3        30.02F
PHILIP         CLOUDY    65  63  93 CALM      29.98F
PINE RIDGE     FOG       63  63 100 NW3       30.00F VSB 1
WINNER         CLOUDY    68  67  96 E9        29.98F
$$

SDZ004>011-016>023-039-040-280800-
NORTHEAST SOUTH DAKOTA

CITY           SKY/WX    TMP DP  RH WIND       PRES   REMARKS
ABERDEEN       CLOUDY    63  62  97 SE5       30.02F
WATERTOWN      CLOUDY    66  63  90 SE9       30.05F
SISSETON         N/A     63  61  93 S8        30.04F
$$

SDZ017-020-022-023-036>040-048>070-280800-
SOUTHEAST SOUTH DAKOTA

CITY           SKY/WX    TMP DP  RH WIND       PRES   REMARKS
SIOUX FALLS    CLOUDY    69  66  90 SE8       30.05F
HURON          CLOUDY    68  65  90 SE6       30.00F
CHAMBERLAIN    LGT RAIN  66  66 100 SE9       30.00F
MITCHELL       CLOUDY    69  67  93 SE12      30.02S
YANKTON        CLOUDY    68  66  94 E6        30.01F
$$

ABBREVIATIONS USED IN REMARKS
   TC - TEMPERATURE IN CELSIUS
  WCI - WIND CHILL INDEX
   HX - HEAT INDEX
  VSB - VISIBILITY



USA.gov is the U.S. government's official web portal to all federal, state and local government web resources and services.